FlightSource - Aviation Photo Database

World Wide Airport Lookup


Search by ICAO
Or
Search by City

FlightSource.ca - Aviation Photo Database - Las Vegas Municipal Airport Information
Airport Identification
Name: Las Vegas Municipal Airport
ICAO: KLVS
IATA:
Airport Location
City: Las Vegas
Region: NM
Country: United States
Continent: North America
Latitude: 35.6542
Longitude: -105.142
Airport Information
Type: Medium Airport
Elevation: 6877 Feet ASL
Flight Status: KLVS
More Info: KLVS
Airport Weather    
Metar: KLVS 262011Z AUTO VRB06KT 10SM TS SCT075 BKN110 28/10 A3030 RMK AO2 LTG DSNT NE-SE TSB05 T02830100
TAF:


Advertisement